[[{"header":{"parameterUnit":"m.s-1","parameterCategory":1,"la1":30.2992,"la2":30.254,"lo1":-89.0895,"lo2":-89.0443,"dy":0.0025,"dx":0.0025,"nx":19,"ny":19,"refTime":"2026-03-19T03:00:00:Z","depth":0,"parameterNumber":2,"parameterNumberName":"U-component_of_WINDS"},"data":[0,0,0,2.4083,2.4084,2.4112,2.4112,2.4157,2.4158,0,0,0,0,0,0,0,0,0,0,0,2.4085,2.4086,2.4083,2.4084,2.4112,2.4112,2.4157,2.4158,0,0,0,0,0,0,0,0,0,0,0,2.4085,2.4086,2.4086,2.4084,2.4112,2.4112,2.4157,2.4132,0,0,0,0,0,0,0,0,0,0,2.4103,2.4115,2.4085,2.4086,2.4085,2.4112,2.4112,2.4131,2.4134,2.415,0,2.4171,0,2.4165,2.4162,2.4162,0,0,0,2.4077,2.4113,2.4111,2.4087,2.4085,2.4112,2.4097,2.4132,2.4135,2.4154,2.4171,2.4172,2.4166,2.4162,2.4162,2.4287,2.4288,0,0,2.4075,2.4095,2.4109,2.4114,2.4114,2.4096,2.4098,2.4134,2.4153,2.4171,2.4173,2.4166,2.4163,2.4163,2.4286,2.4287,0,0,0,2.4076,2.4094,2.4092,2.4113,2.4117,2.4097,2.4099,2.4151,2.4148,2.4173,2.4167,2.4163,2.4164,2.4285,2.4286,2.435,0,0,0,2.4075,2.4095,2.4091,2.4104,2.4117,2.4135,2.4116,2.4146,2.4149,2.4167,2.4163,2.4164,2.4284,2.4286,2.4346,2.4376,0,0,0,2.408,2.4095,2.4103,2.4105,2.4117,2.4134,2.4133,2.4146,2.4146,2.4162,2.4164,2.4283,2.4285,2.4342,2.437,2.4411,0,0,0,2.4091,2.4162,2.4104,2.4179,2.4117,2.4174,2.4133,2.4174,2.4196,2.4163,2.4284,2.4286,2.4341,2.4367,2.4407,2.4447,2.4467,0,0,2.4191,2.4174,2.4217,2.4166,2.4238,2.4169,2.4248,2.425,2.4233,2.4269,2.4272,2.4347,2.437,2.441,2.4573,2.4589,0,0,0,2.4255,2.4285,2.43,2.4321,2.4323,2.4325,2.4313,2.4312,2.434,2.4257,2.4374,2.4387,2.4409,2.4427,2.4441,2.4457,2.4296,2.4296,2.4296,2.4424,2.4397,2.4464,2.4439,2.446,2.4443,2.4455,2.4451,2.4421,2.4448,2.4458,2.456,2.4582,2.4592,2.4609,2.4479,2.4479,2.448,2.448,2.4565,2.4601,2.4555,2.4602,2.4572,2.4611,2.4595,2.457,2.4599,2.4552,2.457,2.4518,2.461,2.4623,2.4484,2.4483,2.4483,2.4482,2.4482,2.4671,2.4683,2.468,2.4704,2.4724,2.4696,2.4724,2.4697,2.4671,2.4689,2.4693,2.4692,2.4684,2.4694,2.4694,2.4694,2.4695,2.4695,2.4695,2.4781,2.4775,2.4803,2.4807,2.4814,2.4819,2.4798,2.4803,2.4801,2.4778,2.4778,2.4741,2.4625,2.4594,2.47,2.4699,2.4699,2.4698,2.4698,2.4929,2.4889,2.4933,2.494,2.4938,2.4957,2.492,2.4931,2.4931,2.4944,2.4902,2.4822,2.4803,2.4792,2.4767,2.4911,2.4911,2.4911,2.4911,2.5016,2.5003,2.5038,2.5048,2.5056,2.5025,2.5069,2.5052,2.5028,2.5024,2.5,2.4964,2.4954,2.4941,2.4927,2.4902,2.5078,2.5078,2.5078,2.5103,2.5088,2.5134,2.5109,2.5105,2.51,2.5139,2.515,2.5115,2.5084,2.502,2.5013,2.4955,2.4939,2.4906,2.4885,2.484,0,0]},{"header":{"parameterUnit":"m.s-1","parameterCategory":1,"la1":30.2992,"la2":30.254,"lo1":-89.0895,"lo2":-89.0443,"dy":0.0025,"dx":0.0025,"nx":19,"ny":19,"refTime":"2026-03-19T03:00:00:Z","depth":0,"parameterNumber":3,"parameterNumberName":"V-component_of_WINDS"},"data":[0,0,0,1.2849,1.2848,1.2818,1.2818,1.2791,1.2791,0,0,0,0,0,0,0,0,0,0,0,1.2868,1.2868,1.2849,1.2848,1.2818,1.2818,1.2792,1.2791,0,0,0,0,0,0,0,0,0,0,0,1.2868,1.2868,1.2868,1.2848,1.2818,1.2818,1.2792,1.2809,0,0,0,0,0,0,0,0,0,0,1.2836,1.2864,1.2868,1.2868,1.2848,1.2818,1.2818,1.281,1.2808,1.2811,0,1.2818,0,1.2805,1.2791,1.2791,0,0,0,1.2841,1.2866,1.2849,1.2868,1.2848,1.2818,1.283,1.2809,1.2807,1.2809,1.2818,1.2816,1.2804,1.2791,1.279,1.2835,1.2835,0,0,1.2842,1.2867,1.285,1.2848,1.2856,1.2831,1.2829,1.2808,1.2818,1.2818,1.2815,1.2804,1.279,1.279,1.2834,1.2835,0,0,0,1.2852,1.2869,1.2852,1.285,1.2843,1.283,1.2828,1.2819,1.2812,1.2815,1.2803,1.279,1.279,1.2833,1.2834,1.2886,0,0,0,1.2853,1.2875,1.2853,1.2868,1.2844,1.2832,1.284,1.2813,1.281,1.2804,1.279,1.279,1.2833,1.2834,1.2884,1.2907,0,0,0,1.2866,1.2876,1.2875,1.287,1.2858,1.2831,1.2822,1.2812,1.2803,1.2791,1.279,1.2832,1.2834,1.2881,1.2903,1.2924,0,0,0,1.2887,1.2923,1.2877,1.2911,1.2858,1.2864,1.2822,1.2825,1.2821,1.279,1.2833,1.2834,1.288,1.29,1.2922,1.2946,1.2959,0,0,1.2947,1.2932,1.295,1.2907,1.2928,1.2867,1.2894,1.2866,1.2842,1.2838,1.2838,1.2884,1.2902,1.2923,1.3025,1.3035,0,0,0,1.2977,1.299,1.299,1.2987,1.2967,1.2949,1.2914,1.2903,1.2898,1.2846,1.2898,1.2908,1.2919,1.2929,1.2938,1.2945,1.2841,1.284,1.284,1.3097,1.3063,1.309,1.3051,1.3048,1.301,1.3003,1.2981,1.2949,1.2961,1.296,1.3025,1.3039,1.3045,1.3053,1.297,1.2971,1.2971,1.2971,1.318,1.3192,1.3145,1.3155,1.3117,1.3123,1.3086,1.3062,1.306,1.3025,1.3033,1.2996,1.3058,1.3063,1.2975,1.2974,1.2973,1.2973,1.2973,1.3254,1.3254,1.3239,1.3228,1.3223,1.3181,1.3182,1.3147,1.3115,1.3123,1.3116,1.3115,1.3108,1.3122,1.3122,1.3123,1.3123,1.3123,1.3123,1.3337,1.3318,1.3324,1.3302,1.3293,1.3277,1.3236,1.3226,1.3205,1.318,1.3179,1.3143,1.3071,1.3053,1.3126,1.3126,1.3125,1.3125,1.3125,1.3432,1.3404,1.3412,1.3404,1.3373,1.3368,1.3323,1.3304,1.329,1.329,1.3251,1.3204,1.3186,1.3178,1.3163,1.3261,1.3261,1.3261,1.3261,1.3494,1.3481,1.3479,1.3467,1.345,1.341,1.3416,1.3382,1.3343,1.3331,1.3312,1.3288,1.3282,1.3267,1.3258,1.3243,1.3359,1.3359,1.3359,1.3549,1.3532,1.3546,1.3508,1.348,1.3456,1.3459,1.3444,1.3394,1.3362,1.332,1.3316,1.3278,1.3268,1.3237,1.3224,1.3195,0,0]}]]